RYR48AP LZIB-LIRN

Flight info

Callsign RYR48AP
Flight time 1h 22m
Altitude 34000
Route TOVKA DCT TISKO DCT PETOV DCT XAMIT DCT SUXUB DCT ERIKA
Aircraft B738/M-SDE2E3FGHIRWXY/LB1

Departure

Time 2026-04-28 15:59
Airport M. R. Štefánik Airport (LZIB)

Arrival

Time 2026-04-28 17:22
Airport Naples International Airport (LIRN)
Time Latitude Longitude Altitude Speed Heading
2026-04-28 15:42 48.16945 17.20133 421 ft 0 kts 314°
2026-04-28 15:52 48.16935 17.20147 422 ft 4 kts 308°
2026-04-28 15:52 48.16922 17.20181 417 ft 4 kts 282°
2026-04-28 15:53 48.16923 17.20217 417 ft 4 kts 236°
2026-04-28 15:53 48.16930 17.20231 417 ft 1 kts 224°
2026-04-28 15:53 48.16931 17.20232 417 ft 0 kts 224°
2026-04-28 15:55 48.16922 17.20219 417 ft 3 kts 224°
2026-04-28 15:55 48.16897 17.20183 422 ft 6 kts 224°
2026-04-28 15:55 48.16860 17.20150 431 ft 7 kts 173°
2026-04-28 15:56 48.16823 17.20196 426 ft 8 kts 135°
2026-04-28 15:56 48.16765 17.20283 426 ft 13 kts 135°
2026-04-28 15:56 48.16691 17.20350 425 ft 13 kts 202°
2026-04-28 15:56 48.16622 17.20261 425 ft 13 kts 221°
2026-04-28 15:57 48.16551 17.20175 429 ft 15 kts 219°
2026-04-28 15:57 48.16471 17.20072 432 ft 15 kts 220°
2026-04-28 15:57 48.16394 17.19971 430 ft 14 kts 221°
2026-04-28 15:57 48.16319 17.19876 425 ft 14 kts 220°
2026-04-28 15:58 48.16246 17.19791 426 ft 13 kts 206°
2026-04-28 15:58 48.16164 17.19830 434 ft 13 kts 133°
2026-04-28 15:58 48.16107 17.19945 434 ft 14 kts 102°
2026-04-28 15:58 48.16162 17.20064 423 ft 18 kts 44°
2026-04-28 15:59 48.16416 17.20429 431 ft 83 kts 44°
2026-04-28 15:59 48.16973 17.21231 418 ft 137 kts 44°
2026-04-28 15:59 48.17736 17.22294 757 ft 153 kts 44°
2026-04-28 15:59 48.18529 17.23444 1224 ft 166 kts 44°
2026-04-28 16:00 48.19365 17.24640 1817 ft 170 kts 44°
2026-04-28 16:00 48.20285 17.25968 2076 ft 195 kts 44°
2026-04-28 16:00 48.21287 17.27411 2556 ft 202 kts 44°
2026-04-28 16:00 48.22356 17.28771 3167 ft 200 kts 27°
2026-04-28 16:01 48.23717 17.29146 3672 ft 206 kts 353°
2026-04-28 16:01 48.25038 17.28312 4241 ft 211 kts 323°
2026-04-28 16:01 48.25899 17.26491 4664 ft 222 kts 289°
2026-04-28 16:01 48.25923 17.24190 5207 ft 226 kts 254°
2026-04-28 16:02 48.25229 17.22046 5699 ft 230 kts 240°
2026-04-28 16:02 48.24420 17.20019 6439 ft 224 kts 239°
2026-04-28 16:02 48.23623 17.18014 7007 ft 224 kts 240°
2026-04-28 16:02 48.22829 17.16000 7505 ft 226 kts 242°
2026-04-28 16:03 48.22014 17.13918 7882 ft 235 kts 242°
2026-04-28 16:03 48.21309 17.11696 8423 ft 235 kts 262°
2026-04-28 16:03 48.21461 17.09339 9180 ft 227 kts 292°
2026-04-28 16:03 48.22121 17.07150 9661 ft 240 kts 297°
2026-04-28 16:04 48.22920 17.04815 9904 ft 263 kts 298°
2026-04-28 16:04 48.23774 17.02305 10253 ft 281 kts 297°
2026-04-28 16:04 48.24681 16.99572 10419 ft 304 kts 294°
2026-04-28 16:04 48.25105 16.96401 10836 ft 319 kts 269°
2026-04-28 16:05 48.24561 16.93152 11536 ft 328 kts 246°
2026-04-28 16:05 48.23116 16.90470 12292 ft 338 kts 221°
2026-04-28 16:05 48.21027 16.88778 13071 ft 346 kts 207°
2026-04-28 16:05 48.18784 16.87386 13795 ft 352 kts 206°
2026-04-28 16:06 48.16489 16.86039 14449 ft 357 kts 205°
2026-04-28 16:06 48.14164 16.84690 15154 ft 360 kts 205°
2026-04-28 16:06 48.11821 16.83325 15866 ft 363 kts 206°
2026-04-28 16:06 48.09458 16.81934 16559 ft 367 kts 206°
2026-04-28 16:07 48.07071 16.80518 17252 ft 371 kts 206°
2026-04-28 16:07 48.04663 16.79082 17968 ft 373 kts 206°
2026-04-28 16:07 47.99815 16.76178 19281 ft 379 kts 207°
2026-04-28 16:08 47.97363 16.74707 19878 ft 382 kts 207°
2026-04-28 16:08 47.94886 16.73222 20469 ft 385 kts 207°
2026-04-28 16:08 47.92387 16.71724 21044 ft 389 kts 207°
2026-04-28 16:09 47.87328 16.68696 22195 ft 395 kts 207°
2026-04-28 16:09 47.84768 16.67167 22750 ft 398 kts 207°
2026-04-28 16:09 47.82189 16.65627 23299 ft 401 kts 207°
2026-04-28 16:10 47.76963 16.62513 24266 ft 408 kts 207°
2026-04-28 16:10 47.74318 16.60940 24742 ft 410 kts 208°
2026-04-28 16:10 47.69000 16.57782 25644 ft 414 kts 208°
2026-04-28 16:11 47.63616 16.54591 26526 ft 419 kts 209°
2026-04-28 16:11 47.58174 16.51373 27362 ft 424 kts 210°
2026-04-28 16:12 47.52671 16.48126 28176 ft 428 kts 210°
2026-04-28 16:12 47.49896 16.46492 28567 ft 430 kts 210°
2026-04-28 16:13 47.44341 16.43227 29397 ft 432 kts 210°
2026-04-28 16:13 47.41531 16.41585 30137 ft 426 kts 211°
2026-04-28 16:13 47.36089 16.38404 31010 ft 424 kts 211°
2026-04-28 16:14 47.30604 16.35193 31790 ft 423 kts 211°
2026-04-28 16:14 47.25160 16.32019 32622 ft 420 kts 211°
2026-04-28 16:15 47.19696 16.28833 33187 ft 423 kts 211°
2026-04-28 16:15 47.16966 16.27247 33607 ft 421 kts 211°
2026-04-28 16:15 47.14247 16.25671 34026 ft 420 kts 211°
2026-04-28 16:16 47.06005 16.20892 34082 ft 425 kts 211°
2026-04-28 16:17 46.97891 16.16221 34116 ft 416 kts 211°
2026-04-28 16:17 46.92488 16.13103 34119 ft 418 kts 211°
2026-04-28 16:18 46.87052 16.09977 34080 ft 421 kts 211°
2026-04-28 16:18 46.81601 16.06853 34106 ft 422 kts 211°
2026-04-28 16:19 46.76129 16.03724 34115 ft 423 kts 211°
2026-04-28 16:19 46.70642 16.00596 34106 ft 424 kts 209°
2026-04-28 16:20 46.67781 15.99383 34099 ft 435 kts 200°
2026-04-28 16:20 46.65778 15.98952 34075 ft 443 kts 192°
2026-04-28 16:20 46.59577 15.98690 34102 ft 447 kts 189°
2026-04-28 16:21 46.53352 15.98534 34111 ft 448 kts 189°
2026-04-28 16:21 46.47115 15.98297 34107 ft 449 kts 190°
2026-04-28 16:22 46.40869 15.98025 34097 ft 449 kts 189°
2026-04-28 16:22 46.34615 15.97754 34105 ft 450 kts 189°
2026-04-28 16:23 46.28493 15.96739 34099 ft 434 kts 204°
2026-04-28 16:23 46.22708 15.94296 34097 ft 432 kts 205°
2026-04-28 16:24 46.16946 15.91834 34082 ft 431 kts 204°
2026-04-28 16:24 46.11189 15.89424 34092 ft 430 kts 204°
2026-04-28 16:25 46.05442 15.87052 34059 ft 429 kts 204°
2026-04-28 16:25 45.99723 15.84706 34070 ft 426 kts 204°
2026-04-28 16:26 45.94033 15.82376 34081 ft 425 kts 204°
2026-04-28 16:26 45.88355 15.80055 34075 ft 423 kts 204°
2026-04-28 16:27 45.82696 15.77746 34073 ft 422 kts 203°
2026-04-28 16:28 45.74230 15.74301 34075 ft 422 kts 203°
2026-04-28 16:28 45.68575 15.72006 34080 ft 422 kts 203°
2026-04-28 16:29 45.60085 15.68569 34080 ft 423 kts 203°
2026-04-28 16:30 45.51572 15.65134 34073 ft 424 kts 203°
2026-04-28 16:30 45.45883 15.62845 34063 ft 425 kts 203°
2026-04-28 16:31 45.40192 15.60561 34077 ft 426 kts 203°
2026-04-28 16:31 45.34481 15.58273 34067 ft 426 kts 203°
2026-04-28 16:32 45.28774 15.55991 34047 ft 427 kts 202°
2026-04-28 16:32 45.20197 15.52571 34059 ft 427 kts 202°
2026-04-28 16:33 45.15445 15.50681 34060 ft 427 kts 202°
2026-04-28 16:33 45.08765 15.48029 34042 ft 426 kts 202°
2026-04-28 16:34 45.03056 15.45768 34063 ft 426 kts 202°
2026-04-28 16:34 44.97386 15.43527 34054 ft 426 kts 202°
2026-04-28 16:35 44.91649 15.41265 34045 ft 425 kts 202°
2026-04-28 16:35 44.85953 15.39022 34054 ft 425 kts 202°
2026-04-28 16:36 44.80294 15.36799 34056 ft 425 kts 202°
2026-04-28 16:36 44.74597 15.34565 34049 ft 425 kts 202°
2026-04-28 16:37 44.68907 15.32339 34037 ft 424 kts 201°
2026-04-28 16:38 44.60381 15.29012 34051 ft 424 kts 201°
2026-04-28 16:38 44.54687 15.26795 34023 ft 425 kts 201°
2026-04-28 16:39 44.48993 15.24583 34038 ft 425 kts 201°
2026-04-28 16:39 44.43288 15.22371 34049 ft 426 kts 201°
2026-04-28 16:40 44.37568 15.20158 34028 ft 427 kts 201°
2026-04-28 16:40 44.31838 15.17945 34026 ft 427 kts 201°
2026-04-28 16:41 44.26109 15.15738 34039 ft 427 kts 201°
2026-04-28 16:41 44.20378 15.13535 34044 ft 427 kts 201°
2026-04-28 16:42 44.14683 15.11349 34030 ft 427 kts 200°
2026-04-28 16:42 44.08954 15.09155 34046 ft 427 kts 200°
2026-04-28 16:43 44.03222 15.06964 34052 ft 427 kts 200°
2026-04-28 16:43 43.97487 15.04776 34037 ft 428 kts 200°
2026-04-28 16:44 43.91742 15.02589 34043 ft 428 kts 200°
2026-04-28 16:44 43.85995 15.00406 34045 ft 428 kts 200°
2026-04-28 16:45 43.80248 14.98227 34041 ft 429 kts 200°
2026-04-28 16:45 43.74496 14.96050 34045 ft 429 kts 200°
2026-04-28 16:46 43.68740 14.93876 34047 ft 429 kts 200°
2026-04-28 16:46 43.62982 14.91705 34030 ft 429 kts 200°
2026-04-28 16:47 43.57227 14.89540 34042 ft 428 kts 200°
2026-04-28 16:47 43.51476 14.87381 34040 ft 428 kts 200°
2026-04-28 16:48 43.45726 14.85227 34038 ft 428 kts 200°
2026-04-28 16:48 43.39978 14.83077 34028 ft 428 kts 200°
2026-04-28 16:49 43.34235 14.80932 34046 ft 428 kts 200°
2026-04-28 16:49 43.28546 14.78621 34042 ft 425 kts 204°
2026-04-28 16:50 43.23021 14.75768 34033 ft 424 kts 206°
2026-04-28 16:50 43.17522 14.72844 34042 ft 424 kts 205°
2026-04-28 16:51 43.12002 14.69969 34033 ft 424 kts 205°
2026-04-28 16:51 43.06469 14.67131 34025 ft 425 kts 205°
2026-04-28 16:52 43.00936 14.64312 34038 ft 425 kts 205°
2026-04-28 16:52 42.95395 14.61494 34037 ft 425 kts 205°
2026-04-28 16:53 42.89853 14.58681 34024 ft 425 kts 205°
2026-04-28 16:53 42.84349 14.55892 34028 ft 425 kts 204°
2026-04-28 16:54 42.78811 14.53091 34030 ft 425 kts 204°
2026-04-28 16:54 42.73233 14.50275 34027 ft 425 kts 204°
2026-04-28 16:55 42.68382 14.47830 34017 ft 425 kts 204°
2026-04-28 16:55 42.62846 14.45046 34020 ft 421 kts 204°
2026-04-28 16:55 42.60131 14.43686 33914 ft 413 kts 204°
2026-04-28 16:56 42.57453 14.42345 33625 ft 406 kts 204°
2026-04-28 16:56 42.54821 14.41027 33257 ft 402 kts 204°
2026-04-28 16:56 42.52213 14.39720 32931 ft 397 kts 204°
2026-04-28 16:56 42.49630 14.38426 32543 ft 395 kts 204°
2026-04-28 16:57 42.47063 14.37141 32191 ft 392 kts 204°
2026-04-28 16:57 42.44514 14.35867 31841 ft 389 kts 204°
2026-04-28 16:57 42.41981 14.34602 31490 ft 387 kts 204°
2026-04-28 16:57 42.39469 14.33348 31159 ft 384 kts 204°
2026-04-28 16:58 42.36965 14.32100 30806 ft 382 kts 204°
2026-04-28 16:58 42.34475 14.30860 30475 ft 380 kts 204°
2026-04-28 16:58 42.31997 14.29626 30119 ft 379 kts 203°
2026-04-28 16:58 42.29532 14.28400 29732 ft 376 kts 203°
2026-04-28 16:59 42.27083 14.27184 29360 ft 373 kts 203°
2026-04-28 16:59 42.24653 14.25979 29007 ft 370 kts 203°
2026-04-28 16:59 42.22246 14.24786 28641 ft 368 kts 203°
2026-04-28 16:59 42.19855 14.23601 28310 ft 365 kts 203°
2026-04-28 17:00 42.17480 14.22425 27942 ft 362 kts 203°
2026-04-28 17:00 42.15121 14.21258 27615 ft 360 kts 203°
2026-04-28 17:00 42.12779 14.20100 27264 ft 357 kts 203°
2026-04-28 17:00 42.10458 14.18954 26923 ft 355 kts 203°
2026-04-28 17:01 42.08149 14.17814 26587 ft 352 kts 203°
2026-04-28 17:01 42.05857 14.16683 26268 ft 350 kts 203°
2026-04-28 17:01 42.03578 14.15560 25913 ft 348 kts 203°
2026-04-28 17:01 42.01315 14.14446 25613 ft 345 kts 203°
2026-04-28 17:02 41.99068 14.13339 25267 ft 343 kts 203°
2026-04-28 17:02 41.97590 14.12612 25063 ft 342 kts 202°
2026-04-28 17:02 41.94610 14.11147 24634 ft 340 kts 202°
2026-04-28 17:02 41.92393 14.10058 24299 ft 339 kts 202°
2026-04-28 17:03 41.87954 14.07957 23640 ft 340 kts 197°
2026-04-28 17:03 41.85639 14.07396 23400 ft 336 kts 190°
2026-04-28 17:03 41.83323 14.06984 23046 ft 335 kts 189°
2026-04-28 17:04 41.78739 14.06183 22447 ft 330 kts 190°
2026-04-28 17:04 41.76469 14.05768 22116 ft 328 kts 190°
2026-04-28 17:05 41.71974 14.04927 21499 ft 324 kts 190°
2026-04-28 17:05 41.69776 14.04512 21186 ft 323 kts 191°
2026-04-28 17:05 41.67534 14.04089 20874 ft 321 kts 191°
2026-04-28 17:06 41.63850 14.03557 20335 ft 322 kts 176°
2026-04-28 17:06 41.61092 14.04954 19956 ft 325 kts 144°
2026-04-28 17:06 41.58435 14.08537 19463 ft 324 kts 133°
2026-04-28 17:07 41.56929 14.10774 19142 ft 324 kts 133°
2026-04-28 17:07 41.55424 14.13010 18833 ft 323 kts 134°
2026-04-28 17:07 41.53912 14.15239 18507 ft 324 kts 134°
2026-04-28 17:07 41.52397 14.17456 18171 ft 324 kts 134°
2026-04-28 17:08 41.50875 14.19670 17831 ft 323 kts 134°
2026-04-28 17:08 41.49356 14.21875 17509 ft 322 kts 134°
2026-04-28 17:08 41.47840 14.24071 17182 ft 321 kts 134°
2026-04-28 17:08 41.46173 14.26034 16731 ft 321 kts 153°
2026-04-28 17:09 41.44102 14.27033 16444 ft 315 kts 169°
2026-04-28 17:09 41.42021 14.27954 16045 ft 319 kts 152°
2026-04-28 17:09 41.40253 14.29755 15712 ft 321 kts 140°
2026-04-28 17:09 41.38601 14.31727 15432 ft 316 kts 140°
2026-04-28 17:10 41.36987 14.33651 14901 ft 316 kts 140°
2026-04-28 17:10 41.35337 14.35593 14474 ft 314 kts 140°
2026-04-28 17:10 41.33671 14.37533 14129 ft 314 kts 140°
2026-04-28 17:10 41.32046 14.39408 13836 ft 313 kts 141°
2026-04-28 17:11 41.30383 14.41316 13499 ft 311 kts 141°
2026-04-28 17:11 41.28772 14.43159 13245 ft 307 kts 140°
2026-04-28 17:11 41.27157 14.45004 12947 ft 305 kts 140°
2026-04-28 17:11 41.25553 14.46834 12667 ft 303 kts 140°
2026-04-28 17:12 41.23971 14.48637 12363 ft 296 kts 141°
2026-04-28 17:12 41.22436 14.50387 12100 ft 286 kts 140°
2026-04-28 17:12 41.20946 14.52082 11839 ft 279 kts 140°
2026-04-28 17:12 41.19479 14.53749 11577 ft 277 kts 141°
2026-04-28 17:13 41.18017 14.55409 11312 ft 276 kts 141°
2026-04-28 17:13 41.16624 14.57128 11018 ft 271 kts 128°
2026-04-28 17:13 41.15878 14.59361 10793 ft 263 kts 99°
2026-04-28 17:13 41.15976 14.61716 10707 ft 252 kts 77°
2026-04-28 17:14 41.16584 14.63898 10578 ft 250 kts 74°
2026-04-28 17:14 41.16600 14.66127 10239 ft 242 kts 113°
2026-04-28 17:14 41.15586 14.67812 9856 ft 234 kts 151°
2026-04-28 17:14 41.14040 14.68299 9364 ft 230 kts 179°
2026-04-28 17:15 41.12433 14.68266 8795 ft 233 kts 188°
2026-04-28 17:15 41.10851 14.67815 8337 ft 232 kts 193°
2026-04-28 17:15 41.09291 14.67334 7954 ft 228 kts 193°
2026-04-28 17:15 41.07757 14.66878 7664 ft 225 kts 193°
2026-04-28 17:16 41.06299 14.66172 7259 ft 226 kts 216°
2026-04-28 17:16 41.05314 14.64505 6760 ft 234 kts 240°
2026-04-28 17:16 41.04488 14.62648 6384 ft 234 kts 236°
2026-04-28 17:16 41.03628 14.60860 6035 ft 225 kts 236°
2026-04-28 17:17 41.02804 14.59142 5708 ft 217 kts 236°
2026-04-28 17:17 41.02007 14.57467 5382 ft 213 kts 236°
2026-04-28 17:17 41.01224 14.55817 5098 ft 213 kts 236°
2026-04-28 17:17 41.00436 14.54152 4781 ft 213 kts 236°
2026-04-28 17:18 40.99655 14.52499 4446 ft 209 kts 235°
2026-04-28 17:18 40.98902 14.50907 4161 ft 201 kts 236°
2026-04-28 17:18 40.98174 14.49368 3872 ft 198 kts 237°
2026-04-28 17:18 40.97441 14.47817 3567 ft 193 kts 237°
2026-04-28 17:19 40.96747 14.46349 3306 ft 189 kts 237°
2026-04-28 17:19 40.96057 14.44889 3030 ft 186 kts 238°
2026-04-28 17:19 40.95380 14.43456 2767 ft 182 kts 238°
2026-04-28 17:19 40.94717 14.42052 2502 ft 178 kts 238°
2026-04-28 17:20 40.94067 14.40675 2245 ft 174 kts 238°
2026-04-28 17:20 40.93636 14.39761 2066 ft 173 kts 238°
2026-04-28 17:20 40.92806 14.38001 1746 ft 169 kts 238°
2026-04-28 17:20 40.92191 14.36697 1502 ft 165 kts 238°
2026-04-28 17:21 40.91592 14.35426 1264 ft 158 kts 236°
2026-04-28 17:21 40.91032 14.34237 1031 ft 149 kts 234°
2026-04-28 17:21 40.90474 14.33056 801 ft 154 kts 233°
2026-04-28 17:22 40.89338 14.30626 364 ft 155 kts 233°
2026-04-28 17:22 40.88773 14.29441 257 ft 142 kts 238°
2026-04-28 17:22 40.88408 14.28664 276 ft 42 kts 238°
2026-04-28 17:23 40.88140 14.28361 285 ft 14 kts 208°
2026-04-28 17:23 40.88091 14.28325 286 ft 0 kts 211°
2026-04-28 17:23 40.88088 14.28322 286 ft 1 kts 210°
2026-04-28 17:23 40.88082 14.28316 291 ft 1 kts 217°
2026-04-28 17:24 40.88075 14.28301 288 ft 4 kts 244°
2026-04-28 17:24 40.88068 14.28259 290 ft 5 kts 259°
2026-04-28 17:24 40.88054 14.28210 293 ft 8 kts 242°
2026-04-28 17:24 40.88026 14.28153 293 ft 6 kts 229°
2026-04-28 17:25 40.87990 14.28134 291 ft 6 kts 173°
2026-04-28 17:25 40.87958 14.28212 290 ft 2 kts 99°
2026-04-28 17:25 40.87949 14.28229 293 ft 3 kts 147°
2026-04-28 17:26 40.87929 14.28233 293 ft 3 kts 179°
2026-04-28 17:26 40.87910 14.28231 294 ft 3 kts 185°
2026-04-28 17:26 40.87890 14.28228 292 ft 2 kts 186°
2026-04-28 17:26 40.87884 14.28227 292 ft 0 kts 186°